Погода в Нетешине

Украина / Хмельницкая область     50°20′16″N   26°38′20″E
темп.,
°C
ветер,
м/с
пор.,
м/с
влажн.,
%
обл.,
%
осадки,
мм/ч
давл.,
гПа
погр.,
м
15 мая, сб
сб1500:00+11юз3893100 0.0 1006214
03:00+10юз379294 0.0 1007215
06:00+9юз2695100 0.0 1008159
09:00+12юз3588100 0.0 1009552
12:00+13з3586100 0.2 1010629
15:00+13зюз3588100 0.4 1011414
18:00+16з357745 1.3 1010686
21:00+11зсз119019 1.9 101110
16 мая, вс
вс1600:00+10ююз22913 0.0 101212
03:00+9ю22925 0.0 101216
06:00+9юв239467 0.0 101144
09:00+14юв468099 0.0 1011354
12:00+19ююв6860100 0.0 10101211
15:00+20ююв6963100 0.5 10081418
18:00+19ююв5968100 1.3 10071091
21:00+14юз2295100 3.9 100846
17 мая, пн
пн1700:00+13юз2597100 2.7 1008151
03:00+12з2797100 5.4 1009266
06:00+11з269693 0.4 1009184
09:00+14зсз347865 0.4 1009518
12:00+17сз445684 0.0 10091096
15:00+19сз334926 0.0 10071506
18:00+19сз22510 0.0 10071450
21:00+13св11746 0.0 100710
18 мая, вт
вт1800:00+11зсз488399 0.0 1008224
03:00+10зсз2595100 0.0 1008138
06:00+11зсз3897100 2.4 1008491
09:00+11зсз3697100 4.2 1009378
12:00+15сз457686 0.7 10091012
15:00+18сз56549 1.6 10081760
18:00+18сз4559100 0.0 10071647
21:00+13зсз3775100 0.0 1009122
19 мая, ср
ср1900:00+12сз377899 0.1 1010202
03:00+11ссз2682100 0.1 1010184
06:00+11ссз2682100 0.1 1011211
09:00+11сз358384 0.3 1012321
12:00+14ссз4576100 0.6 1012799
15:00+13сз4677100 1.3 1012571
18:00+13сз5878100 0.3 1011649
21:00+11сз51182100 0.4 1012427